Tracking 23099 objects as of 12-May-2021
HD Live streaming from Space Station
objects crossing your sky now

SL-19 DEB

Track SL-19 DEB now!
10-day predictions


NORAD ID: 23487
Int'l Code: 1994-085K
Perigee: 1,871.6 km
Apogee: 2,159.6 km
Inclination: 64.9 °
Period: 127.4 minutes
Semi major axis: 8386 km
RCS: 0.0667 m2 (small)
Launch date: December 26, 1994
Source: Commonwealth of Independent States (former USSR) (CIS)
Launch site: TYURATAM MISSILE AND SPACE COMPLEX (TTMTR)

Note: This is SATELLITE DEBRIS
aabbcc
Your satellite tracking list
Your tracking list is empty




NASA's NSSDC Master Catalog

Two Line Element Set (TLE):
1 23487U 94085K   21132.55251872 -.00000084  00000-0 -11420-2 0  9998
2 23487  64.9410  54.1133 0171677 193.0153 340.8357 11.30377874 88522
Source of the keplerian elements: AFSPC